TimeEDT,TemperatureF,Dew PointF,Humidity,Sea Level PressureIn,VisibilityMPH,Wind Direction,Wind SpeedMPH,Gust SpeedMPH,PrecipitationIn,Events,Conditions,WindDirDegrees,DateUTC
12:54 AM,62.1,57.0,84,30.14,10.0,SSW,11.5,-,N/A,,Clear,200,2013-04-09 04:54:00
1:54 AM,62.1,57.0,84,30.13,10.0,SSW,10.4,-,N/A,,Clear,200,2013-04-09 05:54:00
2:54 AM,61.0,57.0,87,30.12,10.0,SSW,11.5,-,N/A,,Clear,200,2013-04-09 06:54:00
3:54 AM,61.0,57.0,87,30.12,10.0,SW,10.4,-,N/A,,Clear,220,2013-04-09 07:54:00
4:54 AM,61.0,57.0,87,30.13,10.0,SSW,10.4,-,N/A,,Clear,210,2013-04-09 08:54:00
5:54 AM,60.1,57.0,90,30.14,10.0,SSW,10.4,-,N/A,,Clear,210,2013-04-09 09:54:00
6:54 AM,60.1,57.0,90,30.16,10.0,SSW,9.2,-,N/A,,Clear,210,2013-04-09 10:54:00
7:54 AM,62.1,57.9,86,30.17,10.0,SSW,10.4,-,N/A,,Clear,210,2013-04-09 11:54:00
8:54 AM,66.0,60.1,81,30.17,10.0,SSW,12.7,-,N/A,,Clear,200,2013-04-09 12:54:00
9:54 AM,71.1,60.1,68,30.17,10.0,SW,13.8,-,N/A,,Clear,230,2013-04-09 13:54:00
10:54 AM,75.0,61.0,62,30.17,10.0,SW,13.8,23.0,N/A,,Clear,230,2013-04-09 14:54:00
11:54 AM,78.1,61.0,56,30.15,10.0,SW,9.2,-,N/A,,Clear,230,2013-04-09 15:54:00
12:54 PM,79.0,60.1,52,30.13,10.0,SW,9.2,-,N/A,,Clear,230,2013-04-09 16:54:00
1:54 PM,82.0,60.1,47,30.11,10.0,SW,9.2,-,N/A,,Clear,220,2013-04-09 17:54:00
2:54 PM,82.0,57.9,44,30.09,10.0,SSW,10.4,-,N/A,,Clear,210,2013-04-09 18:54:00
3:54 PM,82.9,55.0,38,30.07,10.0,SSW,15.0,-,N/A,,Clear,200,2013-04-09 19:54:00
4:54 PM,82.9,53.1,36,30.05,10.0,SSW,12.7,-,N/A,,Clear,210,2013-04-09 20:54:00
5:54 PM,81.0,57.0,44,30.06,10.0,SW,12.7,-,N/A,,Clear,220,2013-04-09 21:54:00
6:54 PM,79.0,57.0,47,30.05,10.0,South,8.1,-,N/A,,Clear,190,2013-04-09 22:54:00
7:54 PM,73.9,61.0,64,30.06,10.0,South,11.5,-,N/A,,Clear,190,2013-04-09 23:54:00
8:54 PM,72.0,62.1,71,30.09,10.0,SSW,12.7,-,N/A,,Clear,200,2013-04-10 00:54:00
9:54 PM,70.0,60.1,71,30.10,10.0,SSW,13.8,-,N/A,,Clear,200,2013-04-10 01:54:00
10:54 PM,68.0,57.9,70,30.10,10.0,SSW,10.4,-,N/A,,Clear,200,2013-04-10 02:54:00
11:54 PM,66.9,57.0,70,30.09,10.0,SSW,11.5,-,N/A,,Clear,200,2013-04-10 03:54:00